This is the latest recevied weather packets stored in our database for station/object K9MWD. If no packets are shown the sender has not sent any weather packets the latest 10 day(s).
| Time | Temp. | Humidity | Pressure | Rain* | Wind** | Luminosity | Snow |
|---|---|---|---|---|---|---|---|
| 1777396645 | 25° C | 86% | 1012.9 hPa | 0 mm | - | 58 W/m² | - |
| 1777396342 | 25° C | 87% | 1012.9 hPa | 0 mm | - | 113 W/m² | - |
| 1777396039 | 25° C | 86% | 1013 hPa | 0 mm | - | 84 W/m² | - |
| 1777395739 | 25° C | 85% | 1012.9 hPa | 0 mm | - | 80 W/m² | - |
| 1777395435 | 25° C | 85% | 1013 hPa | 0 mm | - | 94 W/m² | - |
| 1777395133 | 25.56° C | 85% | 1013.2 hPa | 0 mm | - | 64 W/m² | - |
| 1777394830 | 25.56° C | 85% | 1013.1 hPa | 0 mm | - | 46 W/m² | - |
| 1777394526 | 25.56° C | 85% | 1012.8 hPa | 0 mm | - | 66 W/m² | - |
| 1777394222 | 25.56° C | 85% | 1012.9 hPa | 0 mm | - | 54 W/m² | - |
| 1777393918 | 25.56° C | 85% | 1013.2 hPa | 0 mm | - | 45 W/m² | - |
| 1777393617 | 25.56° C | 84% | 1013.2 hPa | 0 mm | - | 46 W/m² | - |
| 1777393313 | 25.56° C | 84% | 1013 hPa | 0 mm | - | 49 W/m² | - |
| 1777393010 | 25.56° C | 85% | 1013.1 hPa | 0 mm | - | 78 W/m² | - |
| 1777392705 | 25.56° C | 85% | 1012.8 hPa | 0 mm | - | 68 W/m² | - |
| 1777392402 | 25.56° C | 85% | 1012.7 hPa | 0 mm | - | 105 W/m² | - |
| 1777392097 | 25° C | 85% | 1012.6 hPa | 0 mm | - | 128 W/m² | - |
| 1777391792 | 25.56° C | 85% | 1012.9 hPa | 0 mm | - | 122 W/m² | - |
| 1777391488 | 25° C | 85% | 1012.4 hPa | 0 mm | - | 110 W/m² | - |
| 1777391185 | 25° C | 86% | 1012.7 hPa | 0 mm | - | 132 W/m² | - |
| 1777390881 | 25° C | 86% | 1012.8 hPa | 0 mm | - | 108 W/m² | - |
| 1777390578 | 25° C | 87% | 1012.8 hPa | 0 mm | - | 101 W/m² | - |
| 1777390275 | 24.44° C | 87% | 1012.5 hPa | 0 mm | - | 87 W/m² | - |
| 1777389971 | 24.44° C | 87% | 1012.8 hPa | 0 mm | - | 57 W/m² | - |
| 1777389668 | 24.44° C | 87% | 1012.8 hPa | 0 mm | - | 41 W/m² | - |
| 1777389364 | 24.44° C | 87% | 1012.7 hPa | 0 mm | - | 50 W/m² | - |
* Rain latest hour (hover to see other rain measurements)
** Current wind speed in m/s (hover to see current wind gust speed)